FW4251 Weather Reports


Display with metric or nautical units.
time (UTC)temp
F
wind
direction
speed
MPH
gust
MPH
rain 1hr
in
rain 24hr
in
rain mn
in
humidity
%
barometer
mb
20200406162032 58 121 2.0 11.0 0.00 0.00 0.00 41 1017.7
20200406161611 57 59 2.0 7.0 0.00 0.00 0.00 42 1017.6
20200406161032 57 82 3.0 7.0 0.00 0.00 0.00 41 1017.7
20200406160543 56 90 2.0 9.0 0.00 0.00 0.00 43 1017.7
20200406160035 56 69 3.0 9.0 0.00 0.00 0.00 42 1017.7
20200406155535 56 22 2.0 11.0 0.00 0.00 0.00 45 1017.8
20200406155028 55 340 4.0 11.0 0.00 0.00 0.00 41 1017.9
20200406154531 55 49 2.0 7.0 0.00 0.00 0.00 44 1017.9
20200406154027 55 10 3.0 6.0 0.00 0.00 0.00 46 1018.2
20200406153536 55 5 2.0 9.0 0.00 0.00 0.00 44 1018.1
20200406153031 54 95 2.0 10.0 0.00 0.00 0.00 46 1018.3
20200406152526 55 84 3.0 10.0 0.00 0.00 0.00 50 1018.3
20200406152024 54 28 4.0 9.0 0.00 0.00 0.00 47 1018.4
20200406151609 54 51 3.0 8.0 0.00 0.00 0.00 48 1018.5
20200406151022 54 68 3.0 8.0 0.00 0.00 0.00 49 1018.4
20200406150525 53 5 2.0 8.0 0.00 0.00 0.00 49 1018.5
20200406150030 53 90 1.0 8.0 0.00 0.00 0.00 49 1018.6
20200406145522 53 63 2.0 11.0 0.00 0.00 0.00 50 1018.5
20200406145020 52 338 3.0 11.0 0.00 0.00 0.00 53 1018.6
20200406144542 53 30 3.0 8.0 0.00 0.00 0.00 51 1018.7
20200406144021 52 58 2.0 8.0 0.00 0.00 0.00 49 1018.6
20200406143522 52 88 1.0 7.0 0.00 0.00 0.00 50 1018.7
20200406143023 52 115 2.0 7.0 0.00 0.00 0.00 51 1018.7
20200406142519 52 30 3.0 6.0 0.00 0.00 0.00 50 1018.7
20200406142018 52 39 2.0 7.0 0.00 0.00 0.00 52 1018.7
20200406141533 52 26 2.0 7.0 0.00 0.00 0.00 53 1018.7
20200406141017 51 49 2.0 8.0 0.00 0.00 0.00 53 1018.7
20200406140517 51 23 2.0 8.0 0.00 0.00 0.00 52 1018.7
20200406140056 51 325 2.0 8.0 0.00 0.00 0.00 55 1018.8
20200406135516 50 32 3.0 8.0 0.00 0.00 0.00 54 1018.7
20200406135019 50 22 3.0 9.0 0.00 0.00 0.00 55 1018.8
20200406134537 50 105 3.0 9.0 0.00 0.00 0.00 57 1018.8
20200406134016 49 5 4.0 9.0 0.00 0.00 0.00 55 1018.9
20200406133530 49 340 3.0 6.0 0.00 0.00 0.00 59 1018.9
20200406133016 49 80 1.0 6.0 0.00 0.00 0.00 59 1018.9
20200406132535 49 21 2.0 4.0 0.00 0.00 0.00 60 1019.0
20200406132013 49 115 2.0 4.0 0.00 0.00 0.00 61 1018.8
20200406131519 48 76 2.0 5.0 0.00 0.00 0.00 64 1019.0
20200406131013 48 344 1.0 5.0 0.00 0.00 0.00 64 1018.9
20200406130512 47 29 1.0 4.0 0.00 0.00 0.00 66 1018.9
20200406130022 47 10 2.0 4.0 0.00 0.00 0.00 67 1018.9
20200406125511 46 32 1.0 5.0 0.00 0.00 0.00 69 1018.8
20200406125011 46 14 2.0 5.0 0.00 0.00 0.00 68 1018.8
20200406124520 46 121 0.0 4.0 0.00 0.00 0.00 69 1018.7
20200406124010 46 347 2.0 5.0 0.00 0.00 0.00 69 1018.6
20200406123514 46 40 2.0 5.0 0.00 0.00 0.00 70 1018.7
20200406123012 45 48 1.0 5.0 0.00 0.00 0.00 72 1018.6
20200406122510 45 63 1.0 5.0 0.00 0.00 0.00 72 1018.7
20200406122016 45 23 2.0 4.0 0.00 0.00 0.00 72 1018.7
20200406121510 44 24 2.0 4.0 0.00 0.00 0.00 73 1018.7
20200406121019 44 26 2.0 4.0 0.00 0.00 0.00 75 1018.7
20200406120508 44 27 2.0 6.0 0.00 0.00 0.00 76 1018.7
20200406120035 44 345 3.0 6.0 0.00 0.00 0.00 76 1018.6
20200406115507 43 321 2.0 5.0 0.00 0.00 0.00 76 1018.7
20200406115007 43 293 2.0 6.0 0.00 0.00 0.00 78 1018.7
20200406114529 43 340 3.0 6.0 0.00 0.00 0.00 78 1018.6
20200406114005 43 348 2.0 6.0 0.00 0.00 0.00 79 1018.6
20200406113505 42 344 3.0 6.0 0.00 0.00 0.00 80 1018.5
20200406113004 42 15 2.0 8.0 0.00 0.00 0.00 80 1018.4
20200406112504 42 15 2.0 4.0 0.00 0.00 0.00 81 1018.3
20200406112003 41 13 2.0 4.0 0.00 0.00 0.00 82 1018.3
20200406111503 41 22 2.0 3.0 0.00 0.00 0.00 83 1018.2
20200406111006 40 31 1.0 4.0 0.00 0.00 0.00 84 1018.1
20200406110503 40 44 2.0 4.0 0.00 0.00 0.00 84 1018.0
20200406110118 40 57 2.0 3.0 0.00 0.00 0.00 85 1018.0
20200406105646 39 57 1.0 3.0 0.00 0.00 0.00 85 1017.9
20200406105058 39 57 0.0 1.0 0.00 0.00 0.00 86 1017.9
20200406104734 39 57 0.0 2.0 0.00 0.00 0.00 86 1017.8
20200406104057 38 57 0.0 2.0 0.00 0.00 0.00 86 1017.8
20200406103555 39 57 0.0 1.0 0.00 0.00 0.00 86 1017.7
20200406103131 39 57 0.0 2.0 0.00 0.00 0.00 85 1017.7
20200406102602 39 57 0.0 2.0 0.00 0.00 0.00 83 1017.7
20200406102052 40 57 0.0 3.0 0.00 0.00 0.00 82 1017.7
20200406101645 40 57 0.0 3.0 0.00 0.00 0.00 82 1017.6
20200406101053 40 57 1.0 3.0 0.00 0.00 0.00 83 1017.5
20200406100551 40 57 1.0 3.0 0.00 0.00 0.00 83 1017.5
20200406100125 40 84 0.0 2.0 0.00 0.00 0.00 83 1017.5
20200406095547 40 84 0.0 2.0 0.00 0.00 0.00 83 1017.4
20200406095050 40 84 0.0 3.0 0.00 0.00 0.00 83 1017.3
20200406094550 40 84 1.0 3.0 0.00 0.00 0.00 83 1017.2
20200406094046 40 83 1.0 2.0 0.00 0.00 0.00 82 1017.1
20200406093543 40 334 0.0 1.0 0.00 0.00 0.00 82 1017.1
20200406093139 41 334 0.0 1.0 0.00 0.00 0.00 81 1017.0
20200406092546 40 334 0.0 1.0 0.00 0.00 0.00 82 1016.9
20200406092041 40 334 0.0 1.0 0.00 0.00 0.00 82 1016.9
20200406091613 40 334 0.0 1.0 0.00 0.00 0.00 81 1016.8
20200406091107 41 334 0.0 1.0 0.00 0.00 0.00 81 1016.8
20200406090559 41 334 0.0 1.0 0.00 0.00 0.00 80 1016.8
20200406090050 41 334 0.0 1.0 0.00 0.00 0.00 81 1016.9
20200406085538 41 334 0.0 1.0 0.00 0.00 0.00 80 1016.8
20200406085046 41 334 0.0 1.0 0.00 0.00 0.00 80 1016.7
20200406084542 41 334 0.0 0.0 0.00 0.00 0.00 79 1016.6
20200406084036 42 334 0.0 0.0 0.00 0.00 0.00 79 1016.6
20200406083535 41 334 0.0 2.0 0.00 0.00 0.00 79 1016.7
20200406083120 42 334 0.0 2.0 0.00 0.00 0.00 77 1016.7
20200406082536 42 334 0.0 0.0 0.00 0.00 0.00 77 1016.7
20200406082046 42 334 0.0 1.0 0.00 0.00 0.00 76 1016.7
20200406081637 43 334 0.0 1.0 0.00 0.00 0.00 76 1016.6
20200406081046 43 334 0.0 1.0 0.00 0.00 0.00 75 1016.7
20200406080528 44 334 0.0 1.0 0.00 0.00 0.00 74 1016.8
20200406080110 44 334 0.0 2.0 0.00 0.00 0.00 74 1016.6
20200406075528 44 334 0.0 2.0 0.00 0.00 0.00 74 1016.7
20200406075027 44 334 0.0 2.0 0.00 0.00 0.00 74 1016.7
20200406074613 43 334 0.0 1.0 0.00 0.00 0.00 74 1016.7
20200406074029 44 334 0.0 1.0 0.00 0.00 0.00 74 1016.7
20200406073524 44 334 0.0 1.0 0.00 0.00 0.00 73 1016.8
20200406073101 45 334 0.0 1.0 0.00 0.00 0.00 72 1016.8
20200406072534 45 334 0.0 2.0 0.00 0.00 0.00 72 1016.7
20200406072023 45 334 0.0 2.0 0.00 0.00 0.00 72 1016.8
20200406071555 45 334 0.0 1.0 0.00 0.00 0.00 72 1016.8
20200406071027 45 334 0.0 3.0 0.00 0.00 0.00 71 1016.7
20200406070520 46 334 1.0 3.0 0.00 0.00 0.00 71 1016.6
20200406070030 45 334 0.0 2.0 0.00 0.00 0.00 71 1016.5
20200406065536 45 334 0.0 2.0 0.00 0.00 0.00 72 1016.5
20200406065021 45 334 0.0 2.0 0.00 0.00 0.00 72 1016.4
20200406064543 46 334 0.0 1.0 0.00 0.00 0.00 71 1016.5
20200406064019 46 334 0.0 1.0 0.00 0.00 0.00 71 1016.5
20200406063523 47 334 0.0 2.0 0.00 0.00 0.00 69 1016.3
20200406063021 48 334 1.0 2.0 0.00 0.00 0.00 68 1016.2
20200406062524 48 334 0.0 2.0 0.00 0.00 0.00 68 1016.3
20200406062008 48 334 0.0 3.0 0.00 0.00 0.00 67 1016.4
20200406061509 49 334 1.0 3.0 0.00 0.00 0.00 66 1016.3
20200406061007 49 334 1.0 8.0 0.00 0.00 0.00 66 1016.3
20200406060510 49 348 2.0 8.0 0.00 0.00 0.00 66 1016.3
20200406060029 49 302 3.0 4.0 0.00 0.00 0.00 67 1016.4
20200406055508 49 329 1.0 4.0 0.00 0.00 0.00 67 1016.4
20200406055014 49 319 2.0 4.0 0.00 0.00 0.00 66 1016.4
20200406054521 49 19 1.0 4.0 0.00 0.00 0.00 66 1016.5
20200406054004 49 350 1.0 4.0 0.00 0.00 0.00 67 1016.4
20200406053511 49 9 2.0 6.0 0.00 0.00 0.00 68 1016.4
20200406053005 49 350 1.0 4.0 0.00 0.00 0.00 69 1016.5
20200406052502 50 27 1.0 4.0 0.00 0.00 0.00 70 1016.4
20200406051920 50 360 1.0 4.0 0.00 0.00 0.00 70 1016.3
20200406051134 50 17 1.0 4.0 0.00 0.00 0.00 70 1016.4
20200406050558 50 16 1.0 3.0 0.00 0.00 0.00 70 1016.3
20200406050322 50 28 1.0 5.0 0.00 0.00 0.00 71 1016.3
20200406045558 50 28 2.0 6.0 0.00 0.00 0.00 71 1016.2
20200406045056 50 43 2.0 4.0 0.00 0.00 0.00 72 1016.3
20200406044628 51 350 2.0 4.0 0.00 0.00 0.00 72 1016.4
20200406044100 51 5 1.0 5.0 0.00 0.00 0.00 72 1016.3
20200406043556 51 69 2.0 5.0 0.00 0.00 0.00 72 1016.2
20200406043110 51 100 0.0 4.0 0.00 0.00 0.00 73 1016.4
20200406042554 51 100 1.0 4.0 0.00 0.00 0.00 73 1016.2
20200406042053 51 53 1.0 4.0 0.00 0.00 0.00 73 1016.2
20200406041712 52 119 1.0 4.0 0.00 0.00 0.00 72 1016.2
20200406041113 52 47 1.0 4.0 0.00 0.00 0.00 72 1016.2
20200406040551 52 77 0.0 5.0 0.00 0.00 0.00 72 1016.2
20200406040053 52 69 2.0 7.0 0.00 0.00 0.00 72 1016.2
20200406035552 52 5 1.0 6.0 0.00 0.00 0.00 72 1016.2
20200406035108 53 56 1.0 5.0 0.00 0.00 0.00 72 1016.1
20200406034659 53 34 1.0 5.0 0.00 0.00 0.00 72 1016.2
20200406034049 53 40 2.0 5.0 0.00 0.00 0.00 73 1016.1
20200406033552 53 47 1.0 7.0 0.00 0.00 0.00 73 1016.1
20200406033100 53 90 1.0 4.0 0.00 0.00 0.00 74 1016.0
20200406032548 53 92 1.0 3.0 0.00 0.00 0.00 74 1015.9
20200406032112 53 97 0.0 2.0 0.00 0.00 0.00 75 1015.9
20200406031651 53 97 0.0 5.0 0.00 0.00 0.00 74 1015.8
20200406031051 53 97 0.0 5.0 0.00 0.00 0.00 74 1015.8
20200406030547 53 78 1.0 2.0 0.00 0.00 0.00 74 1015.9
20200406030125 53 78 0.0 2.0 0.00 0.00 0.00 74 1015.9
20200406025547 53 78 0.0 6.0 0.00 0.00 0.00 74 1016.0
20200406025048 53 93 2.0 6.0 0.00 0.00 0.00 75 1015.8
20200406024638 53 52 0.0 3.0 0.00 0.00 0.00 75 1015.8
20200406024047 53 52 1.0 3.0 0.00 0.00 0.00 75 1015.8
20200406023546 53 69 0.0 3.0 0.00 0.00 0.00 75 1015.8
20200406023054 53 70 0.0 3.0 0.00 0.00 0.00 75 1015.9
20200406022556 53 70 0.0 3.0 0.00 0.00 0.00 76 1015.9
20200406022046 53 70 0.0 3.0 0.00 0.00 0.00 77 1015.9
20200406021722 53 83 0.0 7.0 0.00 0.00 0.00 78 1016.0
20200406021045 53 83 0.0 7.0 0.00 0.00 0.00 77 1015.9
20200406020545 53 46 1.0 4.0 0.00 0.00 0.00 77 1016.0
20200406020129 53 51 0.0 1.0 0.00 0.00 0.00 77 1015.9
20200406015544 54 51 0.0 1.0 0.00 0.00 0.00 76 1015.9
20200406015044 54 51 0.0 2.0 0.00 0.00 0.00 76 1015.9
20200406014609 54 51 0.0 2.0 0.00 0.00 0.00 75 1015.9
20200406014101 54 51 0.0 3.0 0.00 0.00 0.00 75 1015.8
20200406013603 54 26 0.0 2.0 0.00 0.00 0.00 75 1015.8
20200406013150 54 26 0.0 4.0 0.00 0.00 0.00 75 1015.8
20200406012543 54 71 0.0 2.0 0.00 0.00 0.00 75 1015.8
20200406012048 54 73 0.0 1.0 0.00 0.00 0.00 75 1015.8
20200406011616 54 72 0.0 1.0 0.00 0.00 0.00 75 1015.7
20200406011048 54 73 0.0 2.0 0.00 0.00 0.00 74 1015.6
20200406010606 54 73 0.0 2.0 0.00 0.00 0.00 75 1015.6
20200406010058 54 73 0.0 2.0 0.00 0.00 0.00 74 1015.5
20200406005542 55 73 1.0 2.0 0.00 0.00 0.00 73 1015.4
20200406005103 55 73 0.0 2.0 0.00 0.00 0.00 73 1015.4
20200406004636 55 73 0.0 2.0 0.00 0.00 0.00 72 1015.3
20200406004041 55 73 0.0 2.0 0.00 0.00 0.00 71 1015.3
20200406003541 55 73 0.0 2.0 0.00 0.00 0.00 71 1015.2
20200406003118 56 73 1.0 2.0 0.00 0.00 0.00 70 1015.2
20200406002541 56 73 0.0 2.0 0.00 0.00 0.00 69 1015.1
20200406002040 56 73 0.0 2.0 0.00 0.00 0.00 69 1015.1
20200406001619 57 73 0.0 3.0 0.00 0.00 0.00 68 1015.0
20200406001044 57 73 1.0 3.0 0.00 0.00 0.00 68 1014.9
20200406000546 57 73 1.0 2.0 0.00 0.00 0.00 67 1014.9
20200406000103 57 73 0.0 2.0 0.00 0.00 0.00 67 1014.8
20200405235545 58 75 0.0 2.0 0.00 0.00 0.00 67 1014.8
20200405235042 58 75 1.0 2.0 0.00 0.00 0.00 66 1014.7
20200405234622 58 75 0.0 3.0 0.00 0.00 0.00 66 1014.7
20200405234039 58 94 1.0 4.0 0.00 0.00 0.00 66 1014.7
20200405233539 58 46 2.0 4.0 0.00 0.00 0.00 66 1014.7
20200405233244 58 344 0.0 2.0 0.00 0.00 0.00 65 1014.7
20200405232539 59 344 0.0 2.0 0.00 0.00 0.00 65 1014.6
20200405232039 59 344 0.0 1.0 0.00 0.00 0.00 64 1014.6
20200405231616 59 344 0.0 1.0 0.00 0.00 0.00 64 1014.5
20200405231038 59 344 0.0 2.0 0.00 0.00 0.00 64 1014.5
20200405230554 60 344 0.0 2.0 0.00 0.00 0.00 63 1014.7
20200405230108 60 344 0.0 1.0 0.00 0.00 0.00 62 1014.6
20200405225545 60 344 0.0 2.0 0.00 0.00 0.00 63 1014.6
20200405225038 61 344 0.0 2.0 0.00 0.00 0.00 62 1014.7
20200405224541 61 344 0.0 1.0 0.00 0.00 0.00 61 1014.6
20200405224039 61 344 0.0 1.0 0.00 0.00 0.00 61 1014.6
20200405223537 62 344 0.0 1.0 0.00 0.00 0.00 60 1014.6
20200405223143 62 344 0.0 1.0 0.00 0.00 0.00 60 1014.5
20200405222543 62 344 0.0 1.0 0.00 0.00 0.00 60 1014.5
20200405222037 62 344 0.0 2.0 0.00 0.00 0.00 58 1014.5
20200405221601 62 344 0.0 2.0 0.00 0.00 0.00 59 1014.5
20200405221036 62 344 0.0 1.0 0.00 0.00 0.00 59 1014.5
20200405220547 62 344 0.0 2.0 0.00 0.00 0.00 60 1014.4
20200405220129 62 344 0.0 2.0 0.00 0.00 0.00 58 1014.5
20200405215537 62 344 0.0 2.0 0.00 0.00 0.00 58 1014.4
20200405215035 62 344 0.0 2.0 0.00 0.00 0.00 60 1014.4
20200405214700 62 344 0.0 2.0 0.00 0.00 0.00 59 1014.3
20200405214034 62 344 0.0 1.0 0.00 0.00 0.00 59 1014.4
20200405213545 62 344 0.0 2.0 0.00 0.00 0.00 58 1014.3
20200405213141 62 344 0.0 2.0 0.00 0.00 0.00 58 1014.3
20200405212545 62 344 0.0 1.0 0.00 0.00 0.00 61 1014.3
20200405212033 62 344 0.0 2.0 0.00 0.00 0.00 59 1014.3
20200405211608 62 344 0.0 2.0 0.00 0.00 0.00 58 1014.3
20200405211035 62 344 0.0 2.0 0.00 0.00 0.00 60 1014.3
20200405210533 62 344 0.0 3.0 0.00 0.00 0.00 59 1014.3
20200405210049 62 344 1.0 3.0 0.00 0.00 0.00 60 1014.4
20200405205537 62 344 2.0 3.0 0.00 0.00 0.00 59 1014.4
20200405205035 62 346 2.0 3.0 0.00 0.00 0.00 59 1014.4
20200405204548 62 346 1.0 5.0 0.00 0.00 0.00 58 1014.3
20200405204036 63 338 2.0 5.0 0.00 0.00 0.00 59 1014.3
20200405203532 63 189 1.0 2.0 0.00 0.00 0.00 56 1014.3
20200405203133 63 187 0.0 1.0 0.00 0.00 0.00 59 1014.2
20200405202534 63 187 0.0 1.0 0.00 0.00 0.00 56 1014.2
20200405202037 63 187 0.0 3.0 0.00 0.00 0.00 57 1014.3
20200405201605 63 187 1.0 3.0 0.00 0.00 0.00 56 1014.2
20200405201033 63 187 0.0 1.0 0.00 0.00 0.00 59 1014.2
20200405200534 62 187 0.0 1.0 0.00 0.00 0.00 60 1014.3
20200405200119 62 187 0.0 2.0 0.00 0.00 0.00 57 1014.3
20200405195530 62 187 1.0 2.0 0.00 0.00 0.00 58 1014.3
20200405195042 62 187 0.0 3.0 0.00 0.00 0.00 58 1014.3
20200405194553 62 187 1.0 3.0 0.00 0.00 0.00 58 1014.3
20200405194032 62 187 1.0 2.0 0.00 0.00 0.00 58 1014.3
20200405193529 63 187 0.0 3.0 0.00 0.00 0.00 59 1014.3
20200405193124 63 187 0.0 3.0 0.00 0.00 0.00 59 1014.4
20200405192528 63 186 0.0 2.0 0.00 0.00 0.00 58 1014.4
20200405192028 63 204 1.0 3.0 0.00 0.00 0.00 58 1014.3
20200405191557 62 204 1.0 3.0 0.00 0.00 0.00 59 1014.3
20200405191028 62 204 1.0 5.0 0.00 0.00 0.00 59 1014.5
20200405190531 62 192 1.0 5.0 0.00 0.00 0.00 57 1014.5
20200405190055 62 174 1.0 5.0 0.00 0.00 0.00 58 1014.5
20200405185535 63 130 1.0 4.0 0.00 0.00 0.00 58 1014.5
20200405185026 62 139 1.0 3.0 0.00 0.00 0.00 59 1014.5
20200405184541 62 120 1.0 3.0 0.00 0.00 0.00 59 1014.6
20200405184030 63 147 1.0 3.0 0.00 0.00 0.00 56 1014.6
20200405183525 63 121 1.0 4.0 0.00 0.00 0.00 57 1014.6
20200405183041 63 118 2.0 4.0 0.00 0.00 0.00 58 1014.6
20200405182524 63 118 1.0 3.0 0.00 0.00 0.00 57 1014.7
20200405182024 63 118 0.0 3.0 0.00 0.00 0.00 56 1014.8
20200405181530 63 119 0.0 3.0 0.00 0.00 0.00 57 1014.8
20200405181022 63 132 0.0 2.0 0.00 0.00 0.00 58 1014.8
20200405180522 63 136 1.0 3.0 0.00 0.00 0.00 58 1014.8
20200405180042 62 136 1.0 3.0 0.00 0.00 0.00 59 1014.9
20200405175525 62 137 1.0 3.0 0.00 0.00 0.00 58 1015.0
20200405175020 62 136 1.0 7.0 0.00 0.00 0.00 59 1015.1
20200405174538 61 232 3.0 7.0 0.00 0.00 0.00 58 1015.2
20200405174022 62 184 1.0 6.0 0.00 0.00 0.00 58 1015.3
20200405173518 63 213 1.0 3.0 0.00 0.00 0.00 58 1015.4
20200405173037 62 214 1.0 4.0 0.00 0.00 0.00 56 1015.4
20200405172517 62 134 1.0 7.0 0.00 0.00 0.00 60 1015.5
20200405172017 62 188 3.0 7.0 0.00 0.00 0.00 57 1015.5
20200405171519 62 209 2.0 5.0 0.00 0.00 0.00 56 1015.6
20200405171023 62 192 1.0 5.0 0.00 0.00 0.00 58 1015.6
20200405170516 62 180 2.0 6.0 0.00 0.00 0.00 57 1015.7
20200405170039 61 202 3.0 6.0 0.00 0.00 0.00 57 1015.6
20200405165515 63 156 2.0 6.0 0.00 0.00 0.00 57 1015.8
20200405165024 63 187 2.0 7.0 0.00 0.00 0.00 56 1015.9
20200405164558 63 165 4.0 7.0 0.00 0.00 0.00 55 1015.8
20200405164014 63 157 1.0 6.0 0.00 0.00 0.00 59 1015.8
20200405163516 62 184 2.0 10.0 0.00 0.00 0.00 59 1015.8
20200405163012 62 199 4.0 8.0 0.00 0.00 0.00 60 1015.8
20200405162517 61 168 4.0 8.0 0.00 0.00 0.00 62 1015.9